Regional Weather Roundup
Issued by NWS Upton, NY

Home | Current Version | Previous Version | Text Only | Print | Product List | Glossary On
Versions: 1 2 3 4 5 6 7 8 9 10 11 12 13 14 15 16 17 18 19 20 21 22 23 24 25 26 27 28 29 30 31 32 33 34 35 36 37 38 39 40 41 42 43 44 45 46 47 48 49 50
000
ASUS41 KOKX 200007
RWROKX

REGIONAL WEATHER ROUNDUP
NATIONAL WEATHER SERVICE NEW YORK NY
800 PM EDT SUN APR 19 2015

NOTE: "FAIR" INDICATES FEW OR NO CLOUDS BELOW 12,000 FEET WITH NO
SIGNIFICANT WEATHER AND/OR OBSTRUCTIONS TO VISIBILITY.

NYZ071-072-176-178-NJZ106-104-200100-
NEW YORK CITY METRO AREA


CITY           SKY/WX    TMP DP  RH WIND       PRES   REMARKS
CENTRAL PARK   CLOUDY    51  31  46 VRB7      30.23R
LAGUARDIA APRT CLOUDY    50  31  48 SE10      30.20S
KENNEDY INTL   CLOUDY    48  35  60 SE10      30.22S
NEWARK/LIBERTY CLOUDY    48  35  60 SE12      30.21S
BRNX BOT. GARD   N/A     48  32  53 SE10      30.21S
TETERBORO      CLOUDY    51  29  42 S9        30.19S
$$

NYZ177-179-078>081-200100-
LONG ISLAND NEW YORK

CITY           SKY/WX    TMP DP  RH WIND       PRES   REMARKS
FARMINGDALE    CLOUDY    47  36  65 SE8       30.22S
ISLIP          CLOUDY    46  35  65 SE12      30.21R
SHIRLEY        CLOUDY    45  35  68 SE6       30.23S
WESTHAMPTON    CLOUDY    45  35  68 SE7       30.24F
MONTAUK POINT    N/A     45  36  70 SE6       30.25F
$$

NYZ052-065-067-200100-
HUDSON VALLEY

CITY           SKY/WX    TMP DP  RH WIND       PRES   REMARKS
WHITE PLAINS   CLOUDY    48  32  53 SE8       30.19S
NEWBURGH       MOCLDY    54  36  50 S17       30.16S
MONTGOMERY       N/A     53  34  48 S10       30.14R
POUGHKEEPSIE   CLOUDY    56  32  40 S8        30.15R
ALBANY         CLOUDY    57  29  34 NE6       30.12S
$$

NJZ001-105-106-008-010-013-015-019>022-104-200100-
NEW JERSEY

CITY           SKY/WX    TMP DP  RH WIND       PRES   REMARKS
NEWARK/LIBERTY CLOUDY    48  35  60 SE12      30.21S
TETERBORO      CLOUDY    51  29  42 S9        30.19S
CALDWELL       CLOUDY    50  31  48 S10       30.20S
MORRISTOWN     CLOUDY    48  34  57 S8        30.21R
SOMERVILLE     CLOUDY    50  35  56 E5        30.17S
SUSSEX         CLOUDY    51  33  50 VRB6      30.18R
ANDOVER          N/A     49  31  49 VRB6      30.16S
TRENTON        CLOUDY    49  33  54 SE10      30.17F
MILLVILLE      CLOUDY    51  42  71 E14       30.14S
ATLANTIC CITY  CLOUDY    47  41  80 E9        30.17F
WRIGHTSTOWN    CLOUDY    47  35  62 E9        30.15F
TOMS RIVER     CLOUDY    46  37  71 E6        30.20F
BELMAR         CLOUDY    46  34  61 SE10      30.20F
$$

PAZ047>061-062-071-200100-
EASTERN PENNSYLVANIA

CITY           SKY/WX    TMP DP  RH WIND       PRES   REMARKS
PHILADELPHIA   CLOUDY    53  36  52 E13       30.16S
ALLENTOWN      CLOUDY    54  35  48 SE9       30.14S
SCRANTON       CLOUDY    57  33  40 SE9G20    30.08R
$$

CTZ002-004>006-009-010-012-RIZ004-006-007-MAZ004-011-015-200100-
SOUTHERN NEW ENGLAND
 IN CT

CITY           SKY/WX    TMP DP  RH WIND       PRES   REMARKS
BRADLEY INTL   CLOUDY    52  32  46 S16G23    30.18R
HARTFORD       CLOUDY    50  32  50 S13       30.21R
DANBURY        CLOUDY    49  31  49 SE6       30.20R
WTRBRY/OXFORD  CLOUDY    46  30  53 S9        30.22R
BRIDGEPORT     CLOUDY    49  37  63 SE8       30.22R
MERIDEN        CLOUDY    50  32  50 S7        30.22R
NEW HAVEN      CLOUDY    46  37  71 SE6       30.23R
CHESTER        FAIR      45  36  70 SE6       30.23S
GROTON         CLOUDY    45  36  70 E8        30.24S
WILLIMANTIC    CLOUDY    48  32  53 S9G20     30.23R

 IN RI

CITY           SKY/WX    TMP DP  RH WIND       PRES   REMARKS
PROVIDENCE     MOCLDY    45  37  73 S13       30.25R
BLOCK ISLAND   CLOUDY    43  36  75 SE8       30.25R
WESTERLY       CLOUDY    44  37  76 SE5       30.26R

 IN MA

CITY           SKY/WX    TMP DP  RH WIND       PRES   REMARKS
BOSTON         MOCLDY    46  35  65 SE9       30.25R
WORCESTER      MOCLDY    50  32  50 SW12      30.20R
WESTFIELD      CLOUDY    55  32  41 S10       30.17R
PROVINCETOWN   PTCLDY   N/A N/A N/A SE7       30.25S
NANTUCKET      MOCLDY    40  36  86 E8        30.25F WCI  34
$$

ANZ330-335-338-340-345-350-353-355-200100-
COASTAL MARINE OBSERVATIONS


STATION/POSITION TIME  SKY/WX   TEMP    WIND        PRES    VSBY  WAVE
                                AIR SEA DIR/SP/G                  HT/PER
                 (UTC)          (F)     (DEG/KT/KT) (MB)    (MI)  (FT/S)
NY HARB ENTRANCE 2350            46 46  120/ 12/ 12 1022.3          3/ 6
4S FIRE IS       2303               45                N/A           3/ 7
20S FIRE ISLAND  2250               45              1022.8          3/ 7
23SW MTP         NOT AVBL
HUDSON CANYON    NOT AVBL
EXECUTION ROCKS  NOT AVBL
WESTERN LI SOUND NOT AVBL
CENTRAL LI SOUND NOT AVBL
EASTERN LI SOUND 2300            44     110/  4/  6   N/A
ROBBINS REEF     2300            48     140/ 11/ 13 1021.7
$$


>>>>>>>>>>>>>>>>>>>>>>>>>>>> KEY <<<<<<<<<<<<<<<<<<<<<<<<<<<
>                                                          <
>     SKY/WX - SKY CONDITION/PRESENT WEATHER               <
>     TMP    - TEMPERATURE IN FAHRENHEIT                   <
>     DP     - DEWPOINT IN FAHRENHEIT                      <
>     RH     - RELATIVE HUMIDITY IN PERCENT                <
>     WIND   - DIRECTION AND SPEED IN MPH                  <
>     PRES   - MEAN SEA LEVEL PRESSURE IN INCHES OF HG     <
>     WCI    - WIND CHILL INDEX                            <
>     VSB    - VISIBILITY IN MILES                         <
>     HX     - HEAT INDEX                                  <
>     TC     - TEMPERATURE IN CELSIUS                      <
>     VRB    - VARIABLE WIND DIRECTION                     <
>                                                          <
>>>>>>>>>>>>>>>>>>>>>>>>>>>> KEY <<<<<<<<<<<<<<<<<<<<<<<<<<<





USA.gov is the U.S. government's official web portal to all federal, state and local government web resources and services.